FDX9008 OMDW-FAOR

Flight info

Callsign FDX9008
Flight time 7h 31m
Altitude 32000
Route ANVIX R401 GIDIS G783 UKRAG/N0506F310 L710 KUKDI/N0505F320 B400 VEDET UL437 MOGDU/N0496F340 UL437 DV UM310 VBR UM307 EPSEK UZ33 NESAG UZ7 OKPIT OKPIT4B
Aircraft B77L/H-SDE1E2E3FGHIJ2J3J4J5M1RWXY/LB1D1

Departure

Time 2026-05-05 11:54
Airport Al Maktoum International Airport (OMDW)

Arrival

Time 2026-05-05 19:26
Airport O.R. Tambo International Airport (FAOR)
Time Latitude Longitude Altitude Speed Heading
2026-05-05 11:26 24.88772 55.15564 167 ft 0 kts 121°
2026-05-05 11:41 24.88783 55.15543 166 ft 4 kts 121°
2026-05-05 11:41 24.88798 55.15517 166 ft 4 kts 121°
2026-05-05 11:41 24.88810 55.15495 166 ft 4 kts 111°
2026-05-05 11:41 24.88813 55.15474 166 ft 4 kts 65°
2026-05-05 11:42 24.88799 55.15457 167 ft 4 kts 30°
2026-05-05 11:42 24.88784 55.15448 167 ft 0 kts 31°
2026-05-05 11:44 24.88795 55.15455 167 ft 5 kts 31°
2026-05-05 11:44 24.88831 55.15480 166 ft 8 kts 31°
2026-05-05 11:44 24.88903 55.15527 165 ft 15 kts 31°
2026-05-05 11:44 24.88993 55.15588 165 ft 15 kts 31°
2026-05-05 11:45 24.89083 55.15648 164 ft 15 kts 31°
2026-05-05 11:45 24.89174 55.15708 164 ft 15 kts 31°
2026-05-05 11:45 24.89264 55.15768 163 ft 15 kts 31°
2026-05-05 11:45 24.89353 55.15828 163 ft 15 kts 31°
2026-05-05 11:46 24.89423 55.15882 163 ft 11 kts 54°
2026-05-05 11:46 24.89412 55.15958 163 ft 11 kts 120°
2026-05-05 11:46 24.89370 55.16034 163 ft 13 kts 121°
2026-05-05 11:46 24.89322 55.16121 163 ft 13 kts 121°
2026-05-05 11:47 24.89274 55.16208 163 ft 13 kts 122°
2026-05-05 11:47 24.89226 55.16293 163 ft 13 kts 121°
2026-05-05 11:47 24.89178 55.16381 163 ft 13 kts 121°
2026-05-05 11:47 24.89130 55.16467 162 ft 13 kts 121°
2026-05-05 11:48 24.89034 55.16641 162 ft 13 kts 121°
2026-05-05 11:48 24.88986 55.16727 162 ft 13 kts 121°
2026-05-05 11:48 24.88938 55.16814 162 ft 13 kts 121°
2026-05-05 11:49 24.88889 55.16901 163 ft 13 kts 121°
2026-05-05 11:49 24.88842 55.16986 163 ft 13 kts 121°
2026-05-05 11:49 24.88794 55.17073 162 ft 13 kts 121°
2026-05-05 11:49 24.88746 55.17160 163 ft 13 kts 121°
2026-05-05 11:50 24.88698 55.17246 163 ft 13 kts 121°
2026-05-05 11:50 24.88650 55.17333 162 ft 13 kts 121°
2026-05-05 11:50 24.88602 55.17420 162 ft 13 kts 121°
2026-05-05 11:50 24.88554 55.17507 162 ft 13 kts 121°
2026-05-05 11:51 24.88507 55.17592 162 ft 13 kts 121°
2026-05-05 11:51 24.88458 55.17680 162 ft 13 kts 121°
2026-05-05 11:51 24.88410 55.17765 162 ft 13 kts 122°
2026-05-05 11:51 24.88406 55.17852 162 ft 9 kts 53°
2026-05-05 11:52 24.88459 55.17894 162 ft 9 kts 31°
2026-05-05 11:52 24.88515 55.17931 162 ft 9 kts 31°
2026-05-05 11:52 24.88571 55.17969 162 ft 9 kts 31°
2026-05-05 11:52 24.88631 55.17958 162 ft 10 kts 321°
2026-05-05 11:53 24.88672 55.17894 162 ft 15 kts 301°
2026-05-05 11:53 24.88770 55.17717 162 ft 39 kts 301°
2026-05-05 11:53 24.88958 55.17378 163 ft 66 kts 301°
2026-05-05 11:53 24.89267 55.16820 161 ft 103 kts 301°
2026-05-05 11:54 24.89698 55.16041 161 ft 134 kts 301°
2026-05-05 11:54 24.90256 55.15029 166 ft 183 kts 301°
2026-05-05 11:54 24.90935 55.13727 565 ft 200 kts 299°
2026-05-05 11:54 24.91534 55.12358 1295 ft 202 kts 300°
2026-05-05 11:55 24.92327 55.11033 1849 ft 210 kts 306°
2026-05-05 11:55 24.93162 55.09659 2221 ft 223 kts 305°
2026-05-05 11:55 24.94016 55.08185 2598 ft 233 kts 303°
2026-05-05 11:55 24.94896 55.06627 2999 ft 242 kts 302°
2026-05-05 11:56 24.95601 55.04950 3490 ft 246 kts 279°
2026-05-05 11:56 24.95408 55.03077 3837 ft 250 kts 240°
2026-05-05 11:56 24.94264 55.01732 4347 ft 244 kts 207°
2026-05-05 11:56 24.92757 55.00809 4730 ft 252 kts 209°
2026-05-05 11:57 24.91165 55.00034 5103 ft 257 kts 187°
2026-05-05 11:57 24.89386 55.00258 5411 ft 258 kts 151°
2026-05-05 11:57 24.88029 55.01469 6075 ft 248 kts 126°
2026-05-05 11:57 24.87095 55.03019 6649 ft 246 kts 120°
2026-05-05 11:58 24.86249 55.04660 7125 ft 248 kts 108°
2026-05-05 11:58 24.86149 55.06564 7349 ft 256 kts 73°
2026-05-05 11:58 24.86689 55.08473 7661 ft 266 kts 76°
2026-05-05 11:58 24.87126 55.10494 8049 ft 275 kts 78°
2026-05-05 11:59 24.87537 55.12575 8562 ft 282 kts 78°
2026-05-05 11:59 24.87956 55.14710 9114 ft 288 kts 78°
2026-05-05 11:59 24.88381 55.16854 9693 ft 292 kts 78°
2026-05-05 11:59 24.88887 55.19036 10192 ft 296 kts 70°
2026-05-05 12:00 24.89679 55.21197 10428 ft 314 kts 66°
2026-05-05 12:00 24.90575 55.23460 10581 ft 335 kts 67°
2026-05-05 12:00 24.91518 55.25904 10729 ft 355 kts 67°
2026-05-05 12:00 24.92495 55.28492 10895 ft 374 kts 68°
2026-05-05 12:01 24.93484 55.31154 11279 ft 385 kts 68°
2026-05-05 12:01 24.94505 55.33916 11806 ft 392 kts 68°
2026-05-05 12:01 24.95545 55.36730 12423 ft 396 kts 68°
2026-05-05 12:01 24.96588 55.39553 13077 ft 399 kts 67°
2026-05-05 12:02 24.97622 55.42411 13674 ft 403 kts 69°
2026-05-05 12:02 24.98601 55.45296 14173 ft 408 kts 69°
2026-05-05 12:02 24.99592 55.48252 14704 ft 412 kts 69°
2026-05-05 12:02 25.00593 55.51231 15253 ft 413 kts 70°
2026-05-05 12:03 25.01141 55.54354 15581 ft 420 kts 90°
2026-05-05 12:03 25.00686 55.57545 16035 ft 424 kts 108°
2026-05-05 12:03 24.99432 55.60431 16626 ft 424 kts 122°
2026-05-05 12:03 24.97858 55.63199 17085 ft 429 kts 122°
2026-05-05 12:04 24.96271 55.66006 17546 ft 435 kts 122°
2026-05-05 12:04 24.94693 55.68878 17977 ft 440 kts 121°
2026-05-05 12:04 24.93062 55.71739 18546 ft 440 kts 125°
2026-05-05 12:04 24.91257 55.74491 19014 ft 443 kts 127°
2026-05-05 12:05 24.89378 55.77209 19410 ft 447 kts 128°
2026-05-05 12:05 24.87514 55.79923 19891 ft 450 kts 127°
2026-05-05 12:05 24.85647 55.82706 20336 ft 453 kts 127°
2026-05-05 12:05 24.83782 55.85518 20765 ft 456 kts 127°
2026-05-05 12:06 24.81888 55.88347 21177 ft 460 kts 127°
2026-05-05 12:06 24.79790 55.90991 21415 ft 461 kts 142°
2026-05-05 12:06 24.77036 55.92776 21783 ft 460 kts 160°
2026-05-05 12:06 24.73964 55.93699 22322 ft 458 kts 174°
2026-05-05 12:07 24.70782 55.93781 22661 ft 459 kts 185°
2026-05-05 12:07 24.67579 55.93569 23015 ft 463 kts 185°
2026-05-05 12:07 24.64349 55.93392 23406 ft 463 kts 187°
2026-05-05 12:07 24.61186 55.92734 23657 ft 463 kts 200°
2026-05-05 12:08 24.58238 55.91336 24016 ft 461 kts 211°
2026-05-05 12:08 24.55620 55.89334 24385 ft 457 kts 223°
2026-05-05 12:08 24.53272 55.87023 24653 ft 459 kts 224°
2026-05-05 12:08 24.50899 55.84654 24943 ft 462 kts 224°
2026-05-05 12:09 24.48500 55.82281 25288 ft 464 kts 224°
2026-05-05 12:09 24.46080 55.79925 25652 ft 465 kts 223°
2026-05-05 12:09 24.43643 55.77577 25990 ft 466 kts 223°
2026-05-05 12:09 24.41191 55.75228 26314 ft 468 kts 223°
2026-05-05 12:10 24.38765 55.72905 26626 ft 470 kts 223°
2026-05-05 12:10 24.36289 55.70532 26927 ft 472 kts 223°
2026-05-05 12:10 24.33815 55.68144 27256 ft 474 kts 223°
2026-05-05 12:10 24.31328 55.65741 27587 ft 475 kts 223°
2026-05-05 12:11 24.28790 55.63397 27883 ft 478 kts 219°
2026-05-05 12:11 24.25971 55.61421 28142 ft 483 kts 211°
2026-05-05 12:11 24.22967 55.59828 28422 ft 487 kts 205°
2026-05-05 12:11 24.19736 55.58596 28692 ft 492 kts 198°
2026-05-05 12:12 24.16414 55.57642 28942 ft 494 kts 197°
2026-05-05 12:12 24.13071 55.56715 29177 ft 496 kts 197°
2026-05-05 12:12 24.09725 55.55771 29416 ft 498 kts 198°
2026-05-05 12:12 24.06417 55.54810 29677 ft 498 kts 198°
2026-05-05 12:13 24.03060 55.53817 29999 ft 497 kts 198°
2026-05-05 12:13 23.99723 55.52825 30310 ft 496 kts 198°
2026-05-05 12:13 23.96400 55.51835 30595 ft 495 kts 198°
2026-05-05 12:13 23.93075 55.50844 30861 ft 495 kts 198°
2026-05-05 12:14 23.89753 55.49854 31131 ft 495 kts 199°
2026-05-05 12:14 23.86435 55.48868 31423 ft 494 kts 199°
2026-05-05 12:14 23.83116 55.47881 31676 ft 494 kts 199°
2026-05-05 12:14 23.79782 55.46887 31707 ft 497 kts 199°
2026-05-05 12:15 23.73163 55.44914 31760 ft 494 kts 199°
2026-05-05 12:15 23.66520 55.42936 31751 ft 492 kts 199°
2026-05-05 12:16 23.59918 55.40972 31754 ft 491 kts 199°
2026-05-05 12:16 23.53227 55.39413 31750 ft 496 kts 187°
2026-05-05 12:17 23.46340 55.39846 31760 ft 505 kts 171°
2026-05-05 12:17 23.39540 55.41906 31764 ft 509 kts 166°
2026-05-05 12:18 23.32741 55.44130 31755 ft 511 kts 166°
2026-05-05 12:18 23.25912 55.46324 31751 ft 512 kts 167°
2026-05-05 12:19 23.19040 55.48495 31746 ft 513 kts 167°
2026-05-05 12:19 23.12217 55.50645 31743 ft 513 kts 167°
2026-05-05 12:20 23.05349 55.52811 31742 ft 513 kts 167°
2026-05-05 12:20 22.98491 55.54942 31739 ft 512 kts 167°
2026-05-05 12:21 22.91618 55.57030 31738 ft 511 kts 167°
2026-05-05 12:21 22.84763 55.59115 31738 ft 511 kts 167°
2026-05-05 12:22 22.77966 55.61188 31736 ft 510 kts 167°
2026-05-05 12:22 22.71136 55.63270 31732 ft 510 kts 167°
2026-05-05 12:23 22.65450 55.65002 31731 ft 510 kts 167°
2026-05-05 12:23 22.58616 55.67085 31727 ft 510 kts 167°
2026-05-05 12:24 22.50666 55.69523 31731 ft 510 kts 167°
2026-05-05 12:24 22.44937 55.71279 31723 ft 511 kts 167°
2026-05-05 12:25 22.38088 55.73375 31725 ft 511 kts 167°
2026-05-05 12:25 22.31269 55.75460 31722 ft 512 kts 167°
2026-05-05 12:26 22.24351 55.77301 31716 ft 509 kts 174°
2026-05-05 12:26 22.17361 55.78051 31729 ft 507 kts 178°
2026-05-05 12:27 22.10317 55.78687 31719 ft 508 kts 178°
2026-05-05 12:27 22.03265 55.79372 31724 ft 508 kts 177°
2026-05-05 12:28 21.96217 55.80084 31725 ft 508 kts 177°
2026-05-05 12:28 21.89213 55.80792 31720 ft 509 kts 177°
2026-05-05 12:29 21.82154 55.81501 31720 ft 508 kts 177°
2026-05-05 12:29 21.75099 55.82209 31718 ft 508 kts 177°
2026-05-05 12:30 21.68054 55.82913 31720 ft 508 kts 177°
2026-05-05 12:30 21.61000 55.83603 31720 ft 508 kts 177°
2026-05-05 12:31 21.53958 55.84289 31721 ft 508 kts 177°
2026-05-05 12:31 21.46957 55.84972 31723 ft 508 kts 177°
2026-05-05 12:32 21.39906 55.85661 31723 ft 508 kts 177°
2026-05-05 12:32 21.32853 55.86349 31720 ft 508 kts 177°
2026-05-05 12:33 21.25812 55.87034 31720 ft 508 kts 177°
2026-05-05 12:33 21.18812 55.87709 31714 ft 508 kts 177°
2026-05-05 12:34 21.11765 55.88385 31716 ft 508 kts 177°
2026-05-05 12:34 21.04722 55.89061 31716 ft 508 kts 177°
2026-05-05 12:35 20.97673 55.89738 31717 ft 508 kts 177°
2026-05-05 12:35 20.90669 55.90410 31713 ft 508 kts 177°
2026-05-05 12:36 20.83623 55.91088 31713 ft 508 kts 177°
2026-05-05 12:36 20.76562 55.91782 31711 ft 508 kts 177°
2026-05-05 12:37 20.69528 55.92475 31711 ft 508 kts 177°
2026-05-05 12:37 20.62539 55.93162 31714 ft 508 kts 177°
2026-05-05 12:38 20.55483 55.93854 31715 ft 508 kts 177°
2026-05-05 12:38 20.48477 55.94540 31715 ft 508 kts 177°
2026-05-05 12:39 20.41441 55.95228 31717 ft 508 kts 177°
2026-05-05 12:39 20.34395 55.95917 31718 ft 508 kts 177°
2026-05-05 12:40 20.27351 55.96600 31721 ft 507 kts 177°
2026-05-05 12:40 20.20309 55.97267 31719 ft 507 kts 177°
2026-05-05 12:41 20.13272 55.97936 31721 ft 507 kts 177°
2026-05-05 12:41 20.06267 55.98505 31717 ft 506 kts 180°
2026-05-05 12:42 19.99227 55.98674 31721 ft 505 kts 181°
2026-05-05 12:42 19.92183 55.98803 31717 ft 506 kts 181°
2026-05-05 12:43 19.85178 55.98959 31721 ft 506 kts 180°
2026-05-05 12:43 19.78126 55.99132 31719 ft 506 kts 180°
2026-05-05 12:44 19.71087 55.99305 31718 ft 506 kts 180°
2026-05-05 12:44 19.64077 55.99475 31719 ft 506 kts 180°
2026-05-05 12:45 19.57029 55.99645 31721 ft 506 kts 180°
2026-05-05 12:45 19.50094 55.98755 31721 ft 500 kts 198°
2026-05-05 12:46 19.43793 55.95860 31723 ft 495 kts 212°
2026-05-05 12:46 19.37852 55.92140 31724 ft 496 kts 212°
2026-05-05 12:47 19.31870 55.88431 31720 ft 498 kts 212°
2026-05-05 12:47 19.25886 55.84792 31721 ft 499 kts 211°
2026-05-05 12:48 19.19832 55.81131 31721 ft 500 kts 211°
2026-05-05 12:48 19.13793 55.77478 31720 ft 500 kts 211°
2026-05-05 12:49 19.07744 55.73819 31717 ft 500 kts 211°
2026-05-05 12:49 19.01692 55.70166 31719 ft 500 kts 211°
2026-05-05 12:50 18.95677 55.66550 31717 ft 500 kts 211°
2026-05-05 12:50 18.89626 55.62915 31715 ft 500 kts 211°
2026-05-05 12:51 18.83574 55.59280 31717 ft 500 kts 211°
2026-05-05 12:51 18.77524 55.55649 31713 ft 500 kts 211°
2026-05-05 12:52 18.71478 55.52022 31713 ft 499 kts 211°
2026-05-05 12:52 18.65474 55.48424 31716 ft 500 kts 211°
2026-05-05 12:53 18.59431 55.44805 31719 ft 500 kts 211°
2026-05-05 12:53 18.53375 55.41182 31717 ft 500 kts 211°
2026-05-05 12:54 18.44292 55.35753 31720 ft 500 kts 211°
2026-05-05 12:55 18.38236 55.32136 31721 ft 500 kts 211°
2026-05-05 12:55 18.32177 55.28521 31718 ft 500 kts 211°
2026-05-05 12:56 18.26159 55.24931 31720 ft 501 kts 211°
2026-05-05 12:56 18.20099 55.21316 31720 ft 501 kts 211°
2026-05-05 12:57 18.14026 55.17737 31725 ft 501 kts 208°
2026-05-05 12:57 18.07630 55.14754 31736 ft 501 kts 204°
2026-05-05 12:58 18.01196 55.11929 31731 ft 501 kts 204°
2026-05-05 12:58 17.94765 55.09078 31734 ft 501 kts 204°
2026-05-05 12:59 17.88338 55.06200 31736 ft 501 kts 204°
2026-05-05 12:59 17.81941 55.03331 31739 ft 501 kts 204°
2026-05-05 13:00 17.72328 54.99026 31742 ft 501 kts 204°
2026-05-05 13:01 17.59482 54.93284 31764 ft 501 kts 204°
2026-05-05 13:01 17.53056 54.90413 31774 ft 501 kts 204°
2026-05-05 13:02 17.46663 54.87560 31771 ft 502 kts 204°
2026-05-05 13:02 17.40226 54.84692 31787 ft 501 kts 204°
2026-05-05 13:03 17.33830 54.81840 31790 ft 502 kts 204°
2026-05-05 13:03 17.27407 54.78918 31796 ft 501 kts 207°
2026-05-05 13:04 17.21455 54.75209 31798 ft 500 kts 214°
2026-05-05 13:04 17.15613 54.71212 31801 ft 500 kts 214°
2026-05-05 13:05 17.09753 54.67255 31804 ft 501 kts 213°
2026-05-05 13:05 17.03909 54.63350 31805 ft 501 kts 213°
2026-05-05 13:06 16.98020 54.59422 31802 ft 501 kts 213°
2026-05-05 13:06 16.92164 54.55513 31800 ft 501 kts 213°
2026-05-05 13:07 16.86275 54.51584 31796 ft 501 kts 213°
2026-05-05 13:07 16.80424 54.47681 31789 ft 502 kts 213°
2026-05-05 13:08 16.74537 54.43756 31783 ft 502 kts 213°
2026-05-05 13:08 16.68639 54.39825 31782 ft 502 kts 213°
2026-05-05 13:09 16.62780 54.35923 31784 ft 502 kts 213°
2026-05-05 13:09 16.57876 54.32660 31785 ft 502 kts 213°
2026-05-05 13:10 16.51013 54.28096 31781 ft 503 kts 213°
2026-05-05 13:10 16.46066 54.24808 31787 ft 503 kts 213°
2026-05-05 13:11 16.40202 54.20914 31786 ft 503 kts 213°
2026-05-05 13:11 16.34289 54.16990 31790 ft 503 kts 213°
2026-05-05 13:12 16.28368 54.13064 31788 ft 503 kts 213°
2026-05-05 13:12 16.22495 54.09172 31792 ft 503 kts 213°
2026-05-05 13:13 16.16565 54.05245 31797 ft 503 kts 213°
2026-05-05 13:13 16.10687 54.01356 31791 ft 504 kts 213°
2026-05-05 13:14 16.04761 53.97437 31791 ft 504 kts 213°
2026-05-05 13:14 15.98843 53.93527 31792 ft 504 kts 213°
2026-05-05 13:15 15.92958 53.89639 31791 ft 504 kts 213°
2026-05-05 13:15 15.87029 53.85726 31794 ft 504 kts 213°
2026-05-05 13:16 15.81133 53.81793 31792 ft 504 kts 213°
2026-05-05 13:16 15.75259 53.77857 31792 ft 504 kts 213°
2026-05-05 13:17 15.69356 53.73909 31789 ft 504 kts 213°
2026-05-05 13:17 15.63487 53.69991 31791 ft 504 kts 213°
2026-05-05 13:18 15.57582 53.66052 31793 ft 504 kts 213°
2026-05-05 13:18 15.51671 53.62111 31796 ft 504 kts 213°
2026-05-05 13:19 15.45809 53.58205 31796 ft 503 kts 213°
2026-05-05 13:19 15.39882 53.54301 31787 ft 503 kts 212°
2026-05-05 13:20 15.33912 53.50490 31794 ft 503 kts 211°
2026-05-05 13:20 15.27977 53.46715 31795 ft 503 kts 212°
2026-05-05 13:21 15.22008 53.42902 31793 ft 503 kts 212°
2026-05-05 13:21 15.16044 53.39086 31795 ft 503 kts 212°
2026-05-05 13:22 15.10122 53.35298 31798 ft 503 kts 212°
2026-05-05 13:22 15.04154 53.31485 31797 ft 503 kts 212°
2026-05-05 13:23 14.98232 53.27704 31797 ft 503 kts 211°
2026-05-05 13:23 14.92260 53.23893 31800 ft 503 kts 211°
2026-05-05 13:24 14.86293 53.20088 31798 ft 503 kts 211°
2026-05-05 13:24 14.80358 53.16306 31802 ft 503 kts 211°
2026-05-05 13:25 14.74394 53.12508 31801 ft 503 kts 211°
2026-05-05 13:25 14.68427 53.08709 31801 ft 503 kts 211°
2026-05-05 13:26 14.62506 53.04933 31803 ft 503 kts 212°
2026-05-05 13:26 14.56555 53.01108 31803 ft 503 kts 212°
2026-05-05 13:27 14.50600 52.97276 31806 ft 503 kts 212°
2026-05-05 13:27 14.44678 52.93473 31806 ft 503 kts 211°
2026-05-05 13:28 14.38714 52.89646 31804 ft 503 kts 211°
2026-05-05 13:28 14.32806 52.85859 31810 ft 503 kts 211°
2026-05-05 13:29 14.26863 52.82051 31808 ft 502 kts 211°
2026-05-05 13:29 14.20921 52.78247 31806 ft 502 kts 211°
2026-05-05 13:30 14.14983 52.74447 31807 ft 502 kts 211°
2026-05-05 13:30 14.09046 52.70651 31812 ft 502 kts 211°
2026-05-05 13:31 14.03142 52.66878 31809 ft 502 kts 211°
2026-05-05 13:31 13.97211 52.63090 31811 ft 502 kts 211°
2026-05-05 13:32 13.91272 52.59298 31813 ft 502 kts 211°
2026-05-05 13:32 13.85369 52.55533 31813 ft 502 kts 211°
2026-05-05 13:33 13.79424 52.51743 31813 ft 502 kts 211°
2026-05-05 13:33 13.73478 52.47954 31813 ft 501 kts 211°
2026-05-05 13:34 13.67579 52.44197 31814 ft 501 kts 211°
2026-05-05 13:34 13.61645 52.40422 31815 ft 502 kts 211°
2026-05-05 13:35 13.55699 52.36640 31811 ft 502 kts 211°
2026-05-05 13:35 13.49754 52.32860 31811 ft 502 kts 211°
2026-05-05 13:36 13.43845 52.29105 31814 ft 502 kts 211°
2026-05-05 13:36 13.37900 52.25330 31817 ft 502 kts 211°
2026-05-05 13:37 13.31947 52.21565 31812 ft 502 kts 211°
2026-05-05 13:37 13.25989 52.17805 31813 ft 502 kts 211°
2026-05-05 13:38 13.20064 52.14066 31813 ft 502 kts 211°
2026-05-05 13:38 13.14135 52.10323 31808 ft 502 kts 211°
2026-05-05 13:39 13.08177 52.06564 31814 ft 502 kts 211°
2026-05-05 13:39 13.02216 52.02805 31813 ft 502 kts 211°
2026-05-05 13:40 12.96289 51.99071 31814 ft 503 kts 211°
2026-05-05 13:40 12.90317 51.95309 31811 ft 503 kts 211°
2026-05-05 13:41 12.84344 51.91550 31809 ft 503 kts 211°
2026-05-05 13:41 12.78412 51.87818 31810 ft 503 kts 211°
2026-05-05 13:42 12.72430 51.84056 31811 ft 503 kts 211°
2026-05-05 13:42 12.66456 51.80303 31812 ft 503 kts 211°
2026-05-05 13:43 12.60507 51.76567 31812 ft 503 kts 211°
2026-05-05 13:43 12.54526 51.72813 31810 ft 503 kts 211°
2026-05-05 13:44 12.48552 51.69065 31807 ft 503 kts 211°
2026-05-05 13:44 12.42615 51.65342 31808 ft 503 kts 211°
2026-05-05 13:45 12.36631 51.61592 31811 ft 503 kts 211°
2026-05-05 13:45 12.30652 51.57847 31809 ft 503 kts 211°
2026-05-05 13:46 12.24704 51.54123 31805 ft 503 kts 211°
2026-05-05 13:46 12.18714 51.50376 31809 ft 503 kts 211°
2026-05-05 13:47 12.12761 51.46652 31809 ft 503 kts 211°
2026-05-05 13:47 12.06774 51.42909 31807 ft 503 kts 211°
2026-05-05 13:48 12.00790 51.39171 31807 ft 504 kts 211°
2026-05-05 13:48 11.94802 51.35431 31807 ft 504 kts 211°
2026-05-05 13:49 11.88863 51.31721 31811 ft 504 kts 210°
2026-05-05 13:49 11.82866 51.27976 31814 ft 504 kts 210°
2026-05-05 13:50 11.76877 51.24239 31813 ft 504 kts 210°
2026-05-05 13:50 11.70922 51.20524 31818 ft 504 kts 210°
2026-05-05 13:51 11.64920 51.16782 31817 ft 504 kts 210°
2026-05-05 13:51 11.58920 51.13043 31820 ft 504 kts 210°
2026-05-05 13:52 11.52929 51.09311 31822 ft 504 kts 210°
2026-05-05 13:52 11.46975 51.05604 31825 ft 504 kts 210°
2026-05-05 13:53 11.40970 51.01867 31831 ft 504 kts 210°
2026-05-05 13:53 11.34973 50.98136 31827 ft 505 kts 210°
2026-05-05 13:54 11.29012 50.94422 31825 ft 505 kts 210°
2026-05-05 13:54 11.23011 50.90685 31823 ft 505 kts 210°
2026-05-05 13:55 11.17009 50.86948 31817 ft 505 kts 210°
2026-05-05 13:55 11.11042 50.83234 31812 ft 505 kts 210°
2026-05-05 13:56 11.05029 50.79496 31811 ft 505 kts 210°
2026-05-05 13:56 10.99021 50.75762 31812 ft 505 kts 210°
2026-05-05 13:57 10.93049 50.72053 31808 ft 506 kts 210°
2026-05-05 13:57 10.87040 50.68322 31811 ft 506 kts 210°
2026-05-05 13:58 10.81004 50.64574 31803 ft 506 kts 210°
2026-05-05 13:58 10.75020 50.60862 31806 ft 506 kts 210°
2026-05-05 13:59 10.65981 50.55258 31802 ft 507 kts 210°
2026-05-05 14:00 10.57960 50.50288 31800 ft 507 kts 210°
2026-05-05 14:00 10.51930 50.46554 31798 ft 507 kts 210°
2026-05-05 14:01 10.45905 50.42826 31798 ft 507 kts 210°
2026-05-05 14:01 10.39873 50.39093 31795 ft 507 kts 210°
2026-05-05 14:02 10.33872 50.35383 31790 ft 507 kts 210°
2026-05-05 14:02 10.27840 50.31655 31790 ft 507 kts 210°
2026-05-05 14:03 10.21805 50.27926 31788 ft 506 kts 210°
2026-05-05 14:03 10.15813 50.24225 31787 ft 506 kts 210°
2026-05-05 14:04 10.09789 50.20507 31791 ft 506 kts 210°
2026-05-05 14:04 10.03767 50.16792 31794 ft 506 kts 210°
2026-05-05 14:05 9.97757 50.13085 31795 ft 506 kts 210°
2026-05-05 14:05 9.91768 50.09393 31799 ft 505 kts 210°
2026-05-05 14:06 9.85753 50.05686 31798 ft 505 kts 210°
2026-05-05 14:06 9.79776 50.02005 31800 ft 505 kts 210°
2026-05-05 14:07 9.73766 49.98304 31801 ft 505 kts 210°
2026-05-05 14:07 9.67747 49.94600 31808 ft 505 kts 210°
2026-05-05 14:08 9.61735 49.90902 31812 ft 505 kts 210°
2026-05-05 14:08 9.55728 49.87208 31811 ft 505 kts 210°
2026-05-05 14:09 9.49761 49.83541 31809 ft 504 kts 210°
2026-05-05 14:09 9.43742 49.79842 31810 ft 504 kts 210°
2026-05-05 14:10 9.37730 49.76150 31803 ft 504 kts 210°
2026-05-05 14:10 9.31755 49.72481 31809 ft 504 kts 210°
2026-05-05 14:11 9.25745 49.68793 31808 ft 504 kts 210°
2026-05-05 14:11 9.19735 49.65108 31806 ft 504 kts 210°
2026-05-05 14:12 9.13762 49.61454 31806 ft 505 kts 210°
2026-05-05 14:12 9.07759 49.57785 31810 ft 505 kts 210°
2026-05-05 14:13 9.01747 49.54109 31804 ft 505 kts 210°
2026-05-05 14:13 8.95719 49.50424 31808 ft 505 kts 210°
2026-05-05 14:14 8.89691 49.46740 31811 ft 505 kts 210°
2026-05-05 14:14 8.83710 49.43087 31811 ft 505 kts 210°
2026-05-05 14:15 8.77680 49.39405 31811 ft 505 kts 210°
2026-05-05 14:15 8.71647 49.35722 31811 ft 505 kts 210°
2026-05-05 14:16 8.65621 49.32044 31811 ft 505 kts 210°
2026-05-05 14:16 8.59624 49.28387 31807 ft 505 kts 210°
2026-05-05 14:17 8.53596 49.24714 31806 ft 505 kts 210°
2026-05-05 14:17 8.47573 49.21045 31802 ft 505 kts 210°
2026-05-05 14:18 8.41591 49.17400 31801 ft 505 kts 210°
2026-05-05 14:18 8.35568 49.13731 31802 ft 504 kts 210°
2026-05-05 14:19 8.29552 49.10068 31803 ft 504 kts 210°
2026-05-05 14:19 8.23541 49.06410 31810 ft 504 kts 210°
2026-05-05 14:20 8.17568 49.02776 31812 ft 504 kts 210°
2026-05-05 14:20 8.11558 48.99121 31816 ft 504 kts 210°
2026-05-05 14:21 8.05554 48.95470 31820 ft 504 kts 210°
2026-05-05 14:21 7.99550 48.91822 31823 ft 504 kts 210°
2026-05-05 14:22 7.93542 48.88171 31825 ft 504 kts 210°
2026-05-05 14:22 7.87536 48.84523 31830 ft 504 kts 210°
2026-05-05 14:23 7.81517 48.80869 31832 ft 504 kts 210°
2026-05-05 14:23 7.75537 48.77240 31826 ft 504 kts 210°
2026-05-05 14:24 7.69530 48.73595 31826 ft 504 kts 210°
2026-05-05 14:24 7.63512 48.69945 31823 ft 504 kts 210°
2026-05-05 14:25 7.57495 48.66296 31854 ft 506 kts 210°
2026-05-05 14:25 7.54472 48.64463 32135 ft 506 kts 210°
2026-05-05 14:25 7.51454 48.62635 32502 ft 503 kts 210°
2026-05-05 14:26 7.48500 48.60844 32847 ft 502 kts 210°
2026-05-05 14:26 7.45508 48.59031 33171 ft 501 kts 210°
2026-05-05 14:26 7.42521 48.57221 33468 ft 501 kts 210°
2026-05-05 14:26 7.39536 48.55412 33740 ft 500 kts 210°
2026-05-05 14:27 7.33544 48.51782 33810 ft 502 kts 210°
2026-05-05 14:27 7.27583 48.48120 33808 ft 501 kts 211°
2026-05-05 14:28 7.21677 48.44464 33810 ft 500 kts 211°
2026-05-05 14:28 7.15754 48.40803 33807 ft 499 kts 211°
2026-05-05 14:29 7.09837 48.37153 33805 ft 498 kts 211°
2026-05-05 14:29 7.03911 48.33501 33802 ft 498 kts 211°
2026-05-05 14:30 6.97982 48.29848 33795 ft 499 kts 211°
2026-05-05 14:30 6.92096 48.26223 33801 ft 499 kts 211°
2026-05-05 14:31 6.86171 48.22574 33799 ft 499 kts 211°
2026-05-05 14:31 6.80220 48.18909 33800 ft 500 kts 211°
2026-05-05 14:32 6.74323 48.15280 33802 ft 500 kts 211°
2026-05-05 14:32 6.68383 48.11626 33797 ft 500 kts 211°
2026-05-05 14:33 6.62443 48.07973 33802 ft 500 kts 211°
2026-05-05 14:33 6.56502 48.04319 33805 ft 500 kts 211°
2026-05-05 14:34 6.50594 48.00687 33798 ft 500 kts 211°
2026-05-05 14:34 6.44659 47.97040 33803 ft 499 kts 211°
2026-05-05 14:35 6.38722 47.93391 33801 ft 499 kts 211°
2026-05-05 14:35 6.32788 47.89746 33800 ft 498 kts 211°
2026-05-05 14:36 6.26909 47.86136 33804 ft 498 kts 211°
2026-05-05 14:36 6.20991 47.82503 33809 ft 497 kts 211°
2026-05-05 14:37 6.15079 47.78875 33800 ft 497 kts 211°
2026-05-05 14:37 6.09214 47.75276 33807 ft 496 kts 211°
2026-05-05 14:38 6.03311 47.71655 33812 ft 496 kts 211°
2026-05-05 14:38 5.97438 47.68053 33811 ft 496 kts 211°
2026-05-05 14:39 5.91545 47.64439 33806 ft 496 kts 211°
2026-05-05 14:39 5.85638 47.60819 33811 ft 496 kts 211°
2026-05-05 14:40 5.79736 47.57202 33811 ft 496 kts 211°
2026-05-05 14:40 5.73867 47.53605 33816 ft 496 kts 211°
2026-05-05 14:41 5.67966 47.49990 33817 ft 497 kts 212°
2026-05-05 14:41 5.62056 47.46385 33818 ft 497 kts 211°
2026-05-05 14:42 5.56127 47.42810 33823 ft 497 kts 211°
2026-05-05 14:42 5.50198 47.39238 33821 ft 497 kts 211°
2026-05-05 14:43 5.44302 47.35682 33822 ft 497 kts 212°
2026-05-05 14:43 5.38364 47.32096 33828 ft 498 kts 212°
2026-05-05 14:44 5.32417 47.28506 33827 ft 498 kts 212°
2026-05-05 14:44 5.26509 47.24940 33834 ft 499 kts 212°
2026-05-05 14:45 5.20558 47.21350 33830 ft 499 kts 212°
2026-05-05 14:45 5.14600 47.17757 33833 ft 500 kts 212°
2026-05-05 14:46 5.08625 47.14154 33839 ft 501 kts 212°
2026-05-05 14:46 5.02652 47.10551 33837 ft 501 kts 212°
2026-05-05 14:47 4.96701 47.06962 33840 ft 501 kts 212°
2026-05-05 14:47 4.90716 47.03356 33846 ft 502 kts 212°
2026-05-05 14:48 4.85729 47.00354 33842 ft 502 kts 212°
2026-05-05 14:48 4.79739 46.96743 33840 ft 502 kts 212°
2026-05-05 14:49 4.73742 46.93130 33851 ft 502 kts 212°
2026-05-05 14:49 4.67751 46.89523 33851 ft 502 kts 212°
2026-05-05 14:50 4.61788 46.85934 33853 ft 502 kts 212°
2026-05-05 14:50 4.55796 46.82326 33853 ft 502 kts 211°
2026-05-05 14:51 4.49791 46.78713 33854 ft 502 kts 211°
2026-05-05 14:51 4.43788 46.75100 33854 ft 503 kts 211°
2026-05-05 14:52 4.37787 46.71490 33860 ft 503 kts 211°
2026-05-05 14:52 4.31824 46.67903 33859 ft 503 kts 211°
2026-05-05 14:53 4.25816 46.64290 33867 ft 503 kts 211°
2026-05-05 14:53 4.19806 46.60677 33868 ft 504 kts 211°
2026-05-05 14:54 4.13790 46.57060 33868 ft 504 kts 211°
2026-05-05 14:54 4.07773 46.53443 33867 ft 504 kts 211°
2026-05-05 14:55 4.01793 46.49850 33872 ft 504 kts 211°
2026-05-05 14:55 3.95754 46.46222 33868 ft 505 kts 211°
2026-05-05 14:56 3.89752 46.42616 33872 ft 505 kts 211°
2026-05-05 14:56 3.83709 46.38986 33880 ft 506 kts 211°
2026-05-05 14:57 3.77671 46.35360 33880 ft 506 kts 211°
2026-05-05 14:57 3.71628 46.31732 33885 ft 506 kts 211°
2026-05-05 14:58 3.65622 46.28125 33882 ft 506 kts 211°
2026-05-05 14:58 3.59573 46.24495 33889 ft 507 kts 211°
2026-05-05 14:59 3.53509 46.20856 33891 ft 507 kts 212°
2026-05-05 14:59 3.47463 46.17228 33892 ft 507 kts 212°
2026-05-05 15:00 3.42422 46.14203 33888 ft 507 kts 212°
2026-05-05 15:00 3.35381 46.09979 33893 ft 507 kts 212°
2026-05-05 15:01 3.29321 46.06344 33892 ft 507 kts 212°
2026-05-05 15:01 3.23288 46.02726 33899 ft 507 kts 212°
2026-05-05 15:02 3.17228 45.99093 33895 ft 507 kts 212°
2026-05-05 15:02 3.11175 45.95463 33892 ft 507 kts 212°
2026-05-05 15:03 3.05117 45.91832 33899 ft 507 kts 212°
2026-05-05 15:03 2.99057 45.88200 33892 ft 507 kts 212°
2026-05-05 15:04 2.93043 45.84595 33893 ft 507 kts 212°
2026-05-05 15:04 2.86987 45.80966 33899 ft 506 kts 212°
2026-05-05 15:05 2.77953 45.75554 33894 ft 506 kts 212°
2026-05-05 15:06 2.71904 45.71930 33897 ft 506 kts 212°
2026-05-05 15:06 2.65848 45.68303 33894 ft 505 kts 212°
2026-05-05 15:07 2.59848 45.64709 33893 ft 505 kts 212°
2026-05-05 15:07 2.53819 45.61099 33894 ft 505 kts 212°
2026-05-05 15:08 2.47790 45.57489 33900 ft 505 kts 212°
2026-05-05 15:08 2.41751 45.53873 33901 ft 505 kts 212°
2026-05-05 15:09 2.35708 45.50255 33894 ft 505 kts 212°
2026-05-05 15:09 2.29698 45.46658 33894 ft 505 kts 212°
2026-05-05 15:10 2.23656 45.43041 33892 ft 505 kts 212°
2026-05-05 15:10 2.17649 45.39446 33883 ft 505 kts 212°
2026-05-05 15:11 2.11603 45.35827 33884 ft 505 kts 212°
2026-05-05 15:11 2.05565 45.32213 33882 ft 505 kts 212°
2026-05-05 15:12 1.99579 45.28587 33886 ft 505 kts 214°
2026-05-05 15:12 1.93722 45.24683 33882 ft 505 kts 215°
2026-05-05 15:13 1.87914 45.20719 33890 ft 505 kts 215°
2026-05-05 15:13 1.82105 45.16773 33893 ft 504 kts 214°
2026-05-05 15:14 1.76326 45.12871 33895 ft 504 kts 214°
2026-05-05 15:14 1.70502 45.08949 33900 ft 503 kts 214°
2026-05-05 15:15 1.64718 45.05052 33900 ft 503 kts 214°
2026-05-05 15:15 1.58915 45.01143 33894 ft 502 kts 214°
2026-05-05 15:16 1.53110 44.97231 33901 ft 501 kts 214°
2026-05-05 15:16 1.47359 44.93357 33896 ft 501 kts 214°
2026-05-05 15:17 1.41580 44.89463 33899 ft 500 kts 214°
2026-05-05 15:17 1.35801 44.85570 33902 ft 500 kts 214°
2026-05-05 15:18 1.30014 44.81671 33902 ft 501 kts 214°
2026-05-05 15:18 1.24269 44.77801 33901 ft 501 kts 214°
2026-05-05 15:19 1.18465 44.73892 33901 ft 502 kts 214°
2026-05-05 15:19 1.12658 44.69980 33902 ft 503 kts 214°
2026-05-05 15:20 1.06873 44.66084 33898 ft 504 kts 214°
2026-05-05 15:20 1.01038 44.62154 33900 ft 505 kts 214°
2026-05-05 15:21 0.95212 44.58231 33901 ft 505 kts 214°
2026-05-05 15:21 0.89409 44.54323 33898 ft 505 kts 214°
2026-05-05 15:22 0.83566 44.50388 33897 ft 506 kts 214°
2026-05-05 15:22 0.77723 44.46454 33906 ft 505 kts 214°
2026-05-05 15:23 0.71918 44.42545 33898 ft 505 kts 214°
2026-05-05 15:23 0.66079 44.38613 33904 ft 505 kts 214°
2026-05-05 15:24 0.60250 44.34688 33901 ft 505 kts 214°
2026-05-05 15:24 0.54424 44.30765 33902 ft 505 kts 214°
2026-05-05 15:25 0.48596 44.26840 33900 ft 505 kts 214°
2026-05-05 15:25 0.42800 44.22938 33897 ft 505 kts 214°
2026-05-05 15:26 0.36963 44.19007 33899 ft 505 kts 214°
2026-05-05 15:26 0.31132 44.15080 33902 ft 504 kts 214°
2026-05-05 15:27 0.25340 44.11166 33902 ft 504 kts 214°
2026-05-05 15:27 0.19538 44.07238 33902 ft 504 kts 214°
2026-05-05 15:28 0.13762 44.03327 33901 ft 503 kts 214°
2026-05-05 15:28 0.07958 43.99399 33900 ft 503 kts 214°
2026-05-05 15:29 0.02154 43.95472 33899 ft 503 kts 214°
2026-05-05 15:29 -0.03614 43.91569 33901 ft 503 kts 214°
2026-05-05 15:30 -0.09413 43.87645 33902 ft 503 kts 214°
2026-05-05 15:30 -0.15225 43.83712 33900 ft 504 kts 214°
2026-05-05 15:31 -0.21036 43.79780 33903 ft 504 kts 214°
2026-05-05 15:31 -0.26848 43.75847 33902 ft 505 kts 214°
2026-05-05 15:32 -0.32629 43.71935 33901 ft 505 kts 214°
2026-05-05 15:32 -0.38454 43.67993 33903 ft 505 kts 214°
2026-05-05 15:33 -0.44283 43.64048 33906 ft 506 kts 214°
2026-05-05 15:33 -0.50117 43.60100 33909 ft 506 kts 214°
2026-05-05 15:34 -0.55946 43.56155 33905 ft 506 kts 214°
2026-05-05 15:34 -0.61747 43.52229 33904 ft 506 kts 214°
2026-05-05 15:35 -0.67582 43.48280 33903 ft 506 kts 215°
2026-05-05 15:35 -0.73420 43.44329 33905 ft 507 kts 215°
2026-05-05 15:36 -0.79266 43.40372 33906 ft 507 kts 215°
2026-05-05 15:36 -0.84127 43.37081 33907 ft 508 kts 215°
2026-05-05 15:37 -0.89989 43.33114 33909 ft 508 kts 214°
2026-05-05 15:37 -0.96793 43.28508 33908 ft 509 kts 214°
2026-05-05 15:38 -1.01708 43.25181 33906 ft 509 kts 214°
2026-05-05 15:38 -1.07583 43.21204 33907 ft 510 kts 214°
2026-05-05 15:39 -1.13421 43.17252 33907 ft 510 kts 214°
2026-05-05 15:39 -1.19306 43.13268 33907 ft 510 kts 214°
2026-05-05 15:40 -1.25184 43.09287 33906 ft 510 kts 214°
2026-05-05 15:40 -1.31059 43.05310 33907 ft 510 kts 214°
2026-05-05 15:41 -1.36935 43.01330 33907 ft 510 kts 214°
2026-05-05 15:41 -1.42804 42.97356 33910 ft 509 kts 214°
2026-05-05 15:42 -1.48672 42.93382 33911 ft 509 kts 214°
2026-05-05 15:42 -1.54530 42.89414 33909 ft 509 kts 214°
2026-05-05 15:43 -1.60350 42.85473 33911 ft 508 kts 214°
2026-05-05 15:43 -1.66207 42.81505 33912 ft 508 kts 214°
2026-05-05 15:44 -1.72057 42.77542 33912 ft 507 kts 214°
2026-05-05 15:44 -1.77898 42.73584 33914 ft 507 kts 214°
2026-05-05 15:45 -1.83732 42.69632 33912 ft 506 kts 214°
2026-05-05 15:45 -1.89561 42.65682 33916 ft 505 kts 214°
2026-05-05 15:46 -1.95381 42.61736 33914 ft 505 kts 214°
2026-05-05 15:46 -2.01160 42.57818 33912 ft 505 kts 215°
2026-05-05 15:47 -2.06940 42.53822 33920 ft 505 kts 215°
2026-05-05 15:47 -2.12719 42.49799 33915 ft 506 kts 215°
2026-05-05 15:48 -2.18507 42.45784 33917 ft 507 kts 215°
2026-05-05 15:48 -2.24266 42.41756 33918 ft 507 kts 216°
2026-05-05 15:49 -2.29959 42.37564 33917 ft 508 kts 217°
2026-05-05 15:49 -2.35599 42.33356 33921 ft 508 kts 217°
2026-05-05 15:50 -2.41296 42.29131 33920 ft 509 kts 217°
2026-05-05 15:50 -2.46963 42.24949 33920 ft 509 kts 217°
2026-05-05 15:51 -2.52677 42.20737 33919 ft 510 kts 217°
2026-05-05 15:51 -2.58397 42.16521 33922 ft 511 kts 217°
2026-05-05 15:52 -2.64117 42.12301 33922 ft 511 kts 217°
2026-05-05 15:52 -2.69839 42.08079 33918 ft 511 kts 217°
2026-05-05 15:53 -2.75537 42.03875 33923 ft 511 kts 217°
2026-05-05 15:53 -2.81268 41.99645 33924 ft 511 kts 217°
2026-05-05 15:54 -2.87002 41.95413 33924 ft 511 kts 217°
2026-05-05 15:54 -2.92701 41.91206 33921 ft 511 kts 217°
2026-05-05 15:55 -2.98418 41.86986 33926 ft 511 kts 217°
2026-05-05 15:55 -3.04147 41.82756 33922 ft 511 kts 217°
2026-05-05 15:56 -3.09827 41.78561 33922 ft 511 kts 217°
2026-05-05 15:56 -3.15553 41.74332 33926 ft 511 kts 217°
2026-05-05 15:57 -3.21274 41.70106 33926 ft 511 kts 217°
2026-05-05 15:57 -3.27013 41.65866 33926 ft 511 kts 217°
2026-05-05 15:58 -3.32702 41.61662 33927 ft 511 kts 217°
2026-05-05 15:58 -3.38430 41.57429 33923 ft 511 kts 217°
2026-05-05 15:59 -3.44156 41.53197 33931 ft 511 kts 217°
2026-05-05 15:59 -3.49857 41.48983 33928 ft 511 kts 217°
2026-05-05 16:00 -3.55589 41.44745 33931 ft 511 kts 217°
2026-05-05 16:00 -3.61294 41.40525 33928 ft 512 kts 217°
2026-05-05 16:01 -3.67028 41.36285 33936 ft 512 kts 217°
2026-05-05 16:01 -3.72769 41.32039 33935 ft 512 kts 217°
2026-05-05 16:02 -3.78505 41.27795 33932 ft 512 kts 217°
2026-05-05 16:02 -3.84202 41.23579 33933 ft 512 kts 217°
2026-05-05 16:03 -3.89946 41.19328 33932 ft 512 kts 217°
2026-05-05 16:03 -3.95683 41.15080 33936 ft 512 kts 217°
2026-05-05 16:04 -4.01471 41.10990 33938 ft 512 kts 212°
2026-05-05 16:04 -4.07580 41.07280 33937 ft 512 kts 211°
2026-05-05 16:05 -4.13707 41.03609 33935 ft 513 kts 211°
2026-05-05 16:05 -4.19795 40.99923 33937 ft 513 kts 211°
2026-05-05 16:06 -4.25899 40.96202 33937 ft 513 kts 211°
2026-05-05 16:06 -4.32000 40.92478 33933 ft 513 kts 211°
2026-05-05 16:07 -4.38062 40.88780 33938 ft 512 kts 211°
2026-05-05 16:07 -4.44155 40.85064 33937 ft 512 kts 211°
2026-05-05 16:08 -4.50241 40.81351 33935 ft 511 kts 211°
2026-05-05 16:08 -4.56288 40.77662 33940 ft 511 kts 211°
2026-05-05 16:09 -4.62367 40.73951 33940 ft 510 kts 211°
2026-05-05 16:09 -4.68438 40.70245 33942 ft 510 kts 211°
2026-05-05 16:10 -4.74463 40.66566 33938 ft 509 kts 210°
2026-05-05 16:10 -4.80512 40.62871 33942 ft 509 kts 211°
2026-05-05 16:11 -4.86278 40.58735 33942 ft 509 kts 217°
2026-05-05 16:12 -4.97351 40.49876 33942 ft 508 kts 217°
2026-05-05 16:13 -5.11226 40.38937 33941 ft 508 kts 216°
2026-05-05 16:13 -5.17025 40.34885 33943 ft 507 kts 212°
2026-05-05 16:14 -5.28778 40.27132 33940 ft 507 kts 212°
2026-05-05 16:15 -5.40526 40.19292 33941 ft 507 kts 212°
2026-05-05 16:16 -5.52235 40.11463 33944 ft 507 kts 212°
2026-05-05 16:17 -5.61049 40.05569 33943 ft 507 kts 212°
2026-05-05 16:18 -5.69824 39.99700 33944 ft 506 kts 212°
2026-05-05 16:19 -5.78628 39.93809 33944 ft 506 kts 212°
2026-05-05 16:19 -5.87387 39.87945 33943 ft 506 kts 212°
2026-05-05 16:20 -5.99113 39.80092 33943 ft 506 kts 212°
2026-05-05 16:22 -6.13715 39.70307 33941 ft 505 kts 212°
2026-05-05 16:23 -6.25421 39.62456 33934 ft 505 kts 212°
2026-05-05 16:23 -6.33182 39.57199 33934 ft 505 kts 213°
2026-05-05 16:24 -6.39947 39.52587 33932 ft 505 kts 213°
2026-05-05 16:25 -6.48639 39.46667 33933 ft 504 kts 213°
2026-05-05 16:25 -6.56383 39.41396 33936 ft 504 kts 212°
2026-05-05 16:26 -6.68016 39.33472 33941 ft 503 kts 213°
2026-05-05 16:27 -6.73793 39.29535 33941 ft 503 kts 213°
2026-05-05 16:27 -6.79596 39.25578 33941 ft 503 kts 213°
2026-05-05 16:28 -6.85398 39.21634 33940 ft 503 kts 211°
2026-05-05 16:28 -6.91583 39.18407 33941 ft 500 kts 200°
2026-05-05 16:29 -6.98170 39.16199 33948 ft 499 kts 195°
2026-05-05 16:29 -7.04813 39.14142 33940 ft 499 kts 195°
2026-05-05 16:30 -7.11407 39.12070 33948 ft 500 kts 196°
2026-05-05 16:30 -7.18045 39.09952 33950 ft 500 kts 196°
2026-05-05 16:31 -7.24685 39.07822 33952 ft 500 kts 196°
2026-05-05 16:31 -7.31321 39.05694 33952 ft 500 kts 196°
2026-05-05 16:32 -7.37934 39.03574 33955 ft 500 kts 196°
2026-05-05 16:32 -7.44586 39.01442 33950 ft 500 kts 196°
2026-05-05 16:33 -7.51229 38.99312 33958 ft 501 kts 196°
2026-05-05 16:33 -7.57838 38.97192 33956 ft 501 kts 196°
2026-05-05 16:34 -7.64494 38.95057 33950 ft 501 kts 196°
2026-05-05 16:34 -7.71143 38.92923 33950 ft 501 kts 196°
2026-05-05 16:35 -7.77788 38.90789 33953 ft 501 kts 196°
2026-05-05 16:35 -7.84433 38.88655 33951 ft 501 kts 196°
2026-05-05 16:36 -7.91075 38.86521 33952 ft 501 kts 196°
2026-05-05 16:36 -7.97673 38.84401 33951 ft 501 kts 196°
2026-05-05 16:37 -8.04331 38.82260 33956 ft 501 kts 197°
2026-05-05 16:37 -8.10971 38.80125 33960 ft 501 kts 196°
2026-05-05 16:38 -8.17624 38.77984 33959 ft 501 kts 197°
2026-05-05 16:38 -8.24236 38.75856 33967 ft 501 kts 197°
2026-05-05 16:39 -8.30889 38.73714 33957 ft 501 kts 196°
2026-05-05 16:39 -8.37501 38.71584 33968 ft 501 kts 196°
2026-05-05 16:40 -8.44147 38.69443 33957 ft 501 kts 197°
2026-05-05 16:40 -8.50785 38.67305 33962 ft 501 kts 197°
2026-05-05 16:41 -8.57432 38.65169 33961 ft 501 kts 196°
2026-05-05 16:41 -8.64084 38.63031 33962 ft 502 kts 196°
2026-05-05 16:42 -8.70714 38.60898 33969 ft 502 kts 197°
2026-05-05 16:42 -8.77390 38.58749 33963 ft 502 kts 197°
2026-05-05 16:43 -8.84032 38.56611 33966 ft 503 kts 197°
2026-05-05 16:43 -8.90709 38.54460 33970 ft 503 kts 197°
2026-05-05 16:44 -8.97356 38.52318 33970 ft 504 kts 197°
2026-05-05 16:44 -9.04054 38.50158 33973 ft 504 kts 197°
2026-05-05 16:45 -9.10761 38.47995 33969 ft 504 kts 197°
2026-05-05 16:45 -9.17417 38.45848 33970 ft 505 kts 197°
2026-05-05 16:46 -9.24113 38.43687 33971 ft 505 kts 197°
2026-05-05 16:46 -9.30804 38.41526 33977 ft 504 kts 197°
2026-05-05 16:47 -9.37493 38.39366 33975 ft 504 kts 197°
2026-05-05 16:47 -9.44132 38.37220 33969 ft 503 kts 197°
2026-05-05 16:48 -9.50808 38.35062 33975 ft 502 kts 197°
2026-05-05 16:48 -9.57467 38.32908 33978 ft 501 kts 197°
2026-05-05 16:49 -9.64074 38.30771 33973 ft 501 kts 197°
2026-05-05 16:49 -9.70716 38.28621 33972 ft 500 kts 197°
2026-05-05 16:50 -9.77337 38.26477 33968 ft 499 kts 197°
2026-05-05 16:50 -9.83975 38.24327 33970 ft 499 kts 197°
2026-05-05 16:51 -9.90545 38.22197 33973 ft 498 kts 197°
2026-05-05 16:51 -9.97149 38.20056 33976 ft 498 kts 197°
2026-05-05 16:52 -10.03753 38.17914 33973 ft 498 kts 197°
2026-05-05 16:52 -10.10323 38.15782 33979 ft 497 kts 197°
2026-05-05 16:53 -10.16931 38.13637 33978 ft 497 kts 197°
2026-05-05 16:53 -10.23523 38.11496 33980 ft 497 kts 197°
2026-05-05 16:54 -10.30120 38.09353 33979 ft 497 kts 197°
2026-05-05 16:54 -10.36659 38.07227 33984 ft 496 kts 197°
2026-05-05 16:55 -10.43250 38.05084 33984 ft 496 kts 197°
2026-05-05 16:55 -10.49840 38.02939 33983 ft 496 kts 197°
2026-05-05 16:56 -10.56366 38.00815 33985 ft 495 kts 197°
2026-05-05 16:56 -10.62931 37.98677 33981 ft 495 kts 197°
2026-05-05 16:57 -10.69490 37.96541 33986 ft 494 kts 197°
2026-05-05 16:57 -10.76012 37.94415 33983 ft 494 kts 197°
2026-05-05 16:58 -10.82571 37.92276 33984 ft 494 kts 197°
2026-05-05 16:58 -10.89120 37.90140 33980 ft 494 kts 197°
2026-05-05 16:59 -10.95667 37.88002 33978 ft 494 kts 197°
2026-05-05 16:59 -11.02211 37.85866 33977 ft 493 kts 197°
2026-05-05 17:00 -11.08708 37.83743 33974 ft 494 kts 197°
2026-05-05 17:00 -11.15256 37.81603 33979 ft 493 kts 197°
2026-05-05 17:01 -11.21805 37.79461 33984 ft 494 kts 197°
2026-05-05 17:01 -11.28352 37.77319 33978 ft 494 kts 197°
2026-05-05 17:02 -11.34853 37.75191 33978 ft 494 kts 197°
2026-05-05 17:02 -11.41409 37.73044 33975 ft 494 kts 197°
2026-05-05 17:03 -11.47962 37.70897 33981 ft 494 kts 197°
2026-05-05 17:03 -11.54510 37.68750 33979 ft 493 kts 198°
2026-05-05 17:04 -11.61020 37.66615 33979 ft 493 kts 198°
2026-05-05 17:04 -11.67519 37.64459 33980 ft 493 kts 198°
2026-05-05 17:05 -11.74042 37.62231 33982 ft 493 kts 198°
2026-05-05 17:05 -11.80512 37.60012 33983 ft 492 kts 198°
2026-05-05 17:06 -11.87012 37.57791 33983 ft 492 kts 198°
2026-05-05 17:06 -11.93521 37.55570 33990 ft 492 kts 198°
2026-05-05 17:07 -11.99992 37.53362 33988 ft 492 kts 198°
2026-05-05 17:07 -12.06496 37.51141 33990 ft 492 kts 198°
2026-05-05 17:08 -12.13014 37.48914 33990 ft 492 kts 198°
2026-05-05 17:08 -12.19505 37.46695 33991 ft 492 kts 198°
2026-05-05 17:09 -12.25971 37.44484 33991 ft 492 kts 198°
2026-05-05 17:09 -12.32471 37.42259 33990 ft 492 kts 198°
2026-05-05 17:10 -12.38972 37.40033 33989 ft 492 kts 198°
2026-05-05 17:10 -12.45423 37.37823 33989 ft 492 kts 198°
2026-05-05 17:11 -12.51921 37.35596 33990 ft 492 kts 198°
2026-05-05 17:11 -12.57329 37.33742 33989 ft 491 kts 198°
2026-05-05 17:12 -12.64876 37.31152 33989 ft 491 kts 199°
2026-05-05 17:12 -12.70265 37.29302 33992 ft 491 kts 199°
2026-05-05 17:13 -12.76750 37.27074 33992 ft 491 kts 199°
2026-05-05 17:13 -12.83233 37.24848 33990 ft 491 kts 198°
2026-05-05 17:14 -12.89735 37.22678 33996 ft 491 kts 198°
2026-05-05 17:14 -12.96259 37.20529 33998 ft 491 kts 198°
2026-05-05 17:15 -13.02731 37.18389 34000 ft 491 kts 198°
2026-05-05 17:15 -13.09240 37.16228 34004 ft 492 kts 198°
2026-05-05 17:16 -13.15762 37.14059 34006 ft 492 kts 198°
2026-05-05 17:16 -13.22235 37.11905 34010 ft 492 kts 198°
2026-05-05 17:17 -13.28744 37.09738 34014 ft 492 kts 198°
2026-05-05 17:17 -13.35259 37.07568 34017 ft 491 kts 198°
2026-05-05 17:18 -13.41761 37.05402 34032 ft 492 kts 198°
2026-05-05 17:18 -13.45042 37.04308 34235 ft 494 kts 199°
2026-05-05 17:18 -13.48308 37.03219 34587 ft 492 kts 199°
2026-05-05 17:19 -13.51556 37.02136 34954 ft 489 kts 199°
2026-05-05 17:19 -13.54751 37.01070 35315 ft 487 kts 199°
2026-05-05 17:19 -13.57981 36.99992 35654 ft 485 kts 199°
2026-05-05 17:19 -13.61193 36.98920 35922 ft 485 kts 199°
2026-05-05 17:20 -13.67653 36.96761 36007 ft 487 kts 199°
2026-05-05 17:20 -13.74061 36.94620 36018 ft 485 kts 199°
2026-05-05 17:21 -13.80476 36.92476 36026 ft 484 kts 199°
2026-05-05 17:22 -13.90089 36.89258 36021 ft 483 kts 199°
2026-05-05 17:22 -13.96483 36.87117 36020 ft 483 kts 199°
2026-05-05 17:23 -14.02839 36.84988 36018 ft 483 kts 199°
2026-05-05 17:23 -14.09244 36.82871 36020 ft 484 kts 199°
2026-05-05 17:24 -14.15660 36.80766 36016 ft 484 kts 199°
2026-05-05 17:24 -14.22094 36.78651 36017 ft 485 kts 199°
2026-05-05 17:25 -14.28531 36.76530 36016 ft 485 kts 199°
2026-05-05 17:25 -14.34939 36.74416 36021 ft 486 kts 199°
2026-05-05 17:26 -14.41392 36.72285 36020 ft 486 kts 199°
2026-05-05 17:26 -14.47814 36.70163 36017 ft 487 kts 199°
2026-05-05 17:27 -14.54275 36.68028 36024 ft 487 kts 199°
2026-05-05 17:27 -14.60738 36.65890 36024 ft 487 kts 199°
2026-05-05 17:28 -14.67199 36.63753 36024 ft 487 kts 199°
2026-05-05 17:28 -14.73616 36.61627 36026 ft 487 kts 199°
2026-05-05 17:29 -14.80063 36.59492 36029 ft 487 kts 200°
2026-05-05 17:29 -14.86513 36.57353 36033 ft 487 kts 200°
2026-05-05 17:30 -14.92959 36.55214 36037 ft 486 kts 200°
2026-05-05 17:30 -14.99408 36.53074 36029 ft 486 kts 200°
2026-05-05 17:31 -15.05827 36.50941 36034 ft 486 kts 200°
2026-05-05 17:31 -15.12289 36.48793 36036 ft 486 kts 200°
2026-05-05 17:32 -15.18699 36.46661 36038 ft 486 kts 200°
2026-05-05 17:32 -15.25149 36.44514 36041 ft 486 kts 200°
2026-05-05 17:33 -15.31590 36.42370 36039 ft 486 kts 200°
2026-05-05 17:33 -15.38005 36.40231 36041 ft 486 kts 200°
2026-05-05 17:34 -15.44452 36.38082 36046 ft 486 kts 200°
2026-05-05 17:34 -15.50910 36.35927 36041 ft 486 kts 200°
2026-05-05 17:35 -15.57355 36.33775 36043 ft 486 kts 200°
2026-05-05 17:35 -15.63776 36.31629 36044 ft 486 kts 200°
2026-05-05 17:36 -15.70230 36.29471 36040 ft 486 kts 200°
2026-05-05 17:36 -15.76630 36.27330 36039 ft 486 kts 200°
2026-05-05 17:37 -15.83094 36.25166 36038 ft 486 kts 200°
2026-05-05 17:37 -15.89541 36.23005 36033 ft 486 kts 200°
2026-05-05 17:38 -15.95954 36.20855 36032 ft 486 kts 200°
2026-05-05 17:38 -16.02399 36.18680 36030 ft 486 kts 201°
2026-05-05 17:39 -16.08801 36.16487 36026 ft 486 kts 201°
2026-05-05 17:39 -16.15224 36.14280 36019 ft 486 kts 201°
2026-05-05 17:40 -16.21658 36.12071 36013 ft 486 kts 201°
2026-05-05 17:40 -16.28107 36.09858 36013 ft 486 kts 201°
2026-05-05 17:41 -16.34531 36.07653 36004 ft 486 kts 201°
2026-05-05 17:41 -16.40936 36.05453 36004 ft 486 kts 201°
2026-05-05 17:42 -16.47375 36.03239 35997 ft 486 kts 201°
2026-05-05 17:42 -16.53774 36.01037 35995 ft 486 kts 201°
2026-05-05 17:43 -16.60214 35.98820 35989 ft 487 kts 201°
2026-05-05 17:43 -16.66660 35.96599 35990 ft 487 kts 201°
2026-05-05 17:44 -16.73062 35.94392 35983 ft 487 kts 201°
2026-05-05 17:44 -16.79518 35.92165 35977 ft 487 kts 201°
2026-05-05 17:45 -16.85960 35.89941 35983 ft 487 kts 201°
2026-05-05 17:45 -16.92363 35.87728 35976 ft 488 kts 201°
2026-05-05 17:46 -16.98814 35.85498 35975 ft 488 kts 201°
2026-05-05 17:46 -17.05264 35.83266 35973 ft 488 kts 201°
2026-05-05 17:47 -17.11715 35.81032 35970 ft 488 kts 201°
2026-05-05 17:47 -17.18130 35.78809 35970 ft 487 kts 201°
2026-05-05 17:48 -17.24573 35.76575 35967 ft 487 kts 201°
2026-05-05 17:48 -17.31021 35.74337 35963 ft 487 kts 201°
2026-05-05 17:49 -17.37425 35.72113 35967 ft 487 kts 201°
2026-05-05 17:49 -17.43862 35.69876 35963 ft 487 kts 201°
2026-05-05 17:50 -17.50311 35.67632 35962 ft 487 kts 201°
2026-05-05 17:50 -17.56697 35.65410 35954 ft 487 kts 201°
2026-05-05 17:51 -17.63133 35.63168 35954 ft 487 kts 201°
2026-05-05 17:51 -17.69567 35.60924 35952 ft 487 kts 201°
2026-05-05 17:52 -17.75969 35.58689 35947 ft 486 kts 201°
2026-05-05 17:52 -17.82394 35.56444 35947 ft 487 kts 201°
2026-05-05 17:53 -17.88836 35.54192 35942 ft 487 kts 201°
2026-05-05 17:53 -17.95229 35.51956 35944 ft 487 kts 201°
2026-05-05 17:54 -18.01664 35.49702 35943 ft 487 kts 201°
2026-05-05 17:54 -18.08101 35.47447 35944 ft 487 kts 201°
2026-05-05 17:55 -18.14545 35.45187 35942 ft 487 kts 201°
2026-05-05 17:55 -18.20933 35.42945 35945 ft 487 kts 201°
2026-05-05 17:56 -18.27384 35.40679 35948 ft 488 kts 201°
2026-05-05 17:56 -18.33828 35.38414 35947 ft 488 kts 201°
2026-05-05 17:57 -18.40236 35.36160 35947 ft 488 kts 201°
2026-05-05 17:57 -18.46690 35.33887 35947 ft 488 kts 201°
2026-05-05 17:58 -18.53136 35.31616 35949 ft 488 kts 201°
2026-05-05 17:58 -18.59577 35.29345 35945 ft 488 kts 201°
2026-05-05 17:59 -18.66017 35.27076 35945 ft 488 kts 201°
2026-05-05 17:59 -18.72441 35.24814 35943 ft 488 kts 202°
2026-05-05 18:00 -18.77806 35.22923 35944 ft 488 kts 202°
2026-05-05 18:00 -18.85299 35.20279 35938 ft 488 kts 202°
2026-05-05 18:01 -18.90693 35.18374 35943 ft 488 kts 202°
2026-05-05 18:01 -18.97095 35.16111 35946 ft 488 kts 202°
2026-05-05 18:02 -19.03545 35.13829 35934 ft 488 kts 202°
2026-05-05 18:02 -19.10010 35.11541 35938 ft 488 kts 202°
2026-05-05 18:03 -19.16466 35.09253 35934 ft 489 kts 202°
2026-05-05 18:03 -19.22880 35.06978 35931 ft 489 kts 202°
2026-05-05 18:04 -19.29327 35.04690 35930 ft 489 kts 202°
2026-05-05 18:04 -19.35798 35.02391 35927 ft 489 kts 202°
2026-05-05 18:05 -19.42256 35.00095 35926 ft 489 kts 202°
2026-05-05 18:05 -19.48721 34.97795 35918 ft 490 kts 202°
2026-05-05 18:06 -19.55147 34.95506 35908 ft 490 kts 202°
2026-05-05 18:06 -19.61623 34.93198 35897 ft 490 kts 202°
2026-05-05 18:07 -19.68091 34.90890 35889 ft 490 kts 202°
2026-05-05 18:07 -19.74550 34.88547 35886 ft 488 kts 206°
2026-05-05 18:08 -19.80465 34.85203 35892 ft 481 kts 218°
2026-05-05 18:08 -19.85633 34.80751 35897 ft 476 kts 225°
2026-05-05 18:09 -19.90564 34.76028 35893 ft 477 kts 226°
2026-05-05 18:09 -19.95478 34.71336 35901 ft 477 kts 225°
2026-05-05 18:10 -20.00447 34.66636 35909 ft 478 kts 225°
2026-05-05 18:10 -20.05430 34.61938 35912 ft 478 kts 225°
2026-05-05 18:11 -20.10382 34.57266 35915 ft 478 kts 225°
2026-05-05 18:11 -20.15356 34.52568 35917 ft 478 kts 225°
2026-05-05 18:12 -20.20330 34.47865 35917 ft 478 kts 225°
2026-05-05 18:12 -20.25313 34.43148 35912 ft 478 kts 225°
2026-05-05 18:13 -20.30251 34.38470 35919 ft 478 kts 225°
2026-05-05 18:13 -20.35225 34.33753 35914 ft 478 kts 225°
2026-05-05 18:14 -20.40200 34.29032 35920 ft 477 kts 225°
2026-05-05 18:14 -20.45163 34.24317 35916 ft 477 kts 225°
2026-05-05 18:15 -20.50100 34.19623 35917 ft 477 kts 225°
2026-05-05 18:15 -20.55059 34.14903 35921 ft 477 kts 225°
2026-05-05 18:16 -20.60005 34.10192 35921 ft 476 kts 225°
2026-05-05 18:16 -20.64925 34.05500 35904 ft 476 kts 225°
2026-05-05 18:17 -20.69869 34.00782 35919 ft 476 kts 225°
2026-05-05 18:17 -20.74894 33.96158 35922 ft 477 kts 223°
2026-05-05 18:18 -20.80074 33.91696 35911 ft 477 kts 223°
2026-05-05 18:18 -20.85223 33.87263 35908 ft 477 kts 223°
2026-05-05 18:19 -20.90381 33.82772 35925 ft 477 kts 223°
2026-05-05 18:19 -20.95488 33.78299 35914 ft 477 kts 223°
2026-05-05 18:20 -21.00629 33.73787 35914 ft 477 kts 223°
2026-05-05 18:20 -21.05782 33.69264 35911 ft 478 kts 223°
2026-05-05 18:21 -21.10901 33.64767 35907 ft 478 kts 223°
2026-05-05 18:21 -21.16043 33.60246 35906 ft 478 kts 223°
2026-05-05 18:22 -21.21194 33.55713 35907 ft 478 kts 224°
2026-05-05 18:22 -21.26311 33.51206 35907 ft 478 kts 224°
2026-05-05 18:23 -21.31458 33.46668 35906 ft 479 kts 224°
2026-05-05 18:23 -21.36610 33.42122 35904 ft 479 kts 224°
2026-05-05 18:24 -21.41758 33.37574 35899 ft 479 kts 224°
2026-05-05 18:24 -21.46902 33.33026 35899 ft 479 kts 224°
2026-05-05 18:25 -21.52043 33.28476 35898 ft 479 kts 224°
2026-05-05 18:25 -21.57185 33.23921 35895 ft 479 kts 224°
2026-05-05 18:26 -21.62291 33.19393 35893 ft 479 kts 224°
2026-05-05 18:26 -21.67434 33.14828 35892 ft 478 kts 224°
2026-05-05 18:27 -21.72569 33.10265 35888 ft 478 kts 224°
2026-05-05 18:27 -21.77670 33.05730 35892 ft 478 kts 224°
2026-05-05 18:28 -21.85304 32.98838 35883 ft 477 kts 225°
2026-05-05 18:28 -21.90351 32.94255 35889 ft 477 kts 225°
2026-05-05 18:29 -21.95430 32.89647 35884 ft 477 kts 225°
2026-05-05 18:29 -22.00516 32.85031 35878 ft 476 kts 225°
2026-05-05 18:30 -22.05572 32.80444 35878 ft 476 kts 225°
2026-05-05 18:30 -22.10692 32.75883 35871 ft 476 kts 225°
2026-05-05 18:31 -22.15782 32.71376 35875 ft 476 kts 225°
2026-05-05 18:31 -22.20899 32.66830 35865 ft 476 kts 225°
2026-05-05 18:32 -22.26007 32.62279 35872 ft 476 kts 225°
2026-05-05 18:32 -22.31118 32.57718 35882 ft 476 kts 225°
2026-05-05 18:33 -22.36223 32.53157 35864 ft 476 kts 225°
2026-05-05 18:33 -22.41291 32.48626 35868 ft 476 kts 225°
2026-05-05 18:34 -22.46400 32.44054 35868 ft 475 kts 225°
2026-05-05 18:34 -22.51506 32.39480 35862 ft 475 kts 225°
2026-05-05 18:35 -22.56577 32.34933 35859 ft 476 kts 225°
2026-05-05 18:35 -22.61678 32.30354 35862 ft 476 kts 225°
2026-05-05 18:36 -22.66744 32.25803 35860 ft 476 kts 225°
2026-05-05 18:36 -22.71844 32.21216 35862 ft 476 kts 226°
2026-05-05 18:37 -22.76950 32.16619 35859 ft 476 kts 226°
2026-05-05 18:37 -22.82023 32.12047 35859 ft 477 kts 226°
2026-05-05 18:38 -22.87137 32.07433 35860 ft 477 kts 226°
2026-05-05 18:38 -22.92240 32.02824 35860 ft 477 kts 226°
2026-05-05 18:39 -22.97317 31.98237 35859 ft 477 kts 226°
2026-05-05 18:39 -23.02507 31.93694 35859 ft 478 kts 225°
2026-05-05 18:40 -23.07696 31.89218 35861 ft 478 kts 225°
2026-05-05 18:40 -23.12901 31.84704 35864 ft 477 kts 225°
2026-05-05 18:41 -23.18088 31.80185 35864 ft 477 kts 225°
2026-05-05 18:41 -23.23247 31.75683 35863 ft 477 kts 225°
2026-05-05 18:42 -23.28398 31.71184 35867 ft 477 kts 225°
2026-05-05 18:42 -23.33572 31.66660 35868 ft 476 kts 225°
2026-05-05 18:43 -23.38755 31.62124 35867 ft 476 kts 226°
2026-05-05 18:43 -23.43720 31.57457 35877 ft 469 kts 233°
2026-05-05 18:44 -23.47834 31.52021 35873 ft 460 kts 242°
2026-05-05 18:44 -23.51167 31.46160 35875 ft 456 kts 245°
2026-05-05 18:45 -23.54433 31.40215 35872 ft 456 kts 245°
2026-05-05 18:45 -23.57160 31.35274 35876 ft 457 kts 245°
2026-05-05 18:46 -23.60455 31.29343 35873 ft 457 kts 245°
2026-05-05 18:46 -23.63742 31.23439 35866 ft 457 kts 245°
2026-05-05 18:47 -23.67040 31.17511 35879 ft 457 kts 245°
2026-05-05 18:47 -23.70338 31.11574 35880 ft 457 kts 245°
2026-05-05 18:48 -23.73635 31.05632 35878 ft 458 kts 245°
2026-05-05 18:48 -23.76918 30.99705 35877 ft 458 kts 246°
2026-05-05 18:49 -23.80212 30.93754 35887 ft 458 kts 246°
2026-05-05 18:49 -23.83502 30.87803 35885 ft 458 kts 246°
2026-05-05 18:50 -23.86788 30.81851 35891 ft 457 kts 246°
2026-05-05 18:50 -23.90070 30.75899 35894 ft 457 kts 246°
2026-05-05 18:51 -23.93348 30.69947 35896 ft 457 kts 246°
2026-05-05 18:51 -23.96625 30.63989 35886 ft 457 kts 246°
2026-05-05 18:52 -23.99897 30.58034 35898 ft 456 kts 246°
2026-05-05 18:52 -24.03167 30.52076 35907 ft 456 kts 246°
2026-05-05 18:53 -24.06411 30.46157 35911 ft 455 kts 246°
2026-05-05 18:53 -24.09667 30.40210 35921 ft 455 kts 247°
2026-05-05 18:54 -24.12915 30.34269 35923 ft 454 kts 247°
2026-05-05 18:54 -24.16158 30.28329 35935 ft 454 kts 247°
2026-05-05 18:55 -24.19379 30.22426 35935 ft 453 kts 247°
2026-05-05 18:55 -24.22604 30.16504 35944 ft 453 kts 247°
2026-05-05 18:56 -24.25830 30.10573 35937 ft 452 kts 247°
2026-05-05 18:56 -24.29048 30.04651 35931 ft 451 kts 247°
2026-05-05 18:57 -24.32242 29.98769 35935 ft 450 kts 247°
2026-05-05 18:57 -24.35442 29.92866 35928 ft 450 kts 248°
2026-05-05 18:58 -24.38640 29.86958 35933 ft 450 kts 248°
2026-05-05 18:58 -24.41841 29.81059 35924 ft 449 kts 247°
2026-05-05 18:59 -24.45067 29.75184 35921 ft 449 kts 247°
2026-05-05 18:59 -24.48272 29.69337 35918 ft 449 kts 247°
2026-05-05 19:00 -24.51510 29.63460 35922 ft 449 kts 247°
2026-05-05 19:00 -24.54767 29.57601 35909 ft 449 kts 247°
2026-05-05 19:01 -24.58021 29.51725 35913 ft 449 kts 247°
2026-05-05 19:01 -24.61245 29.45904 35916 ft 449 kts 247°
2026-05-05 19:02 -24.64494 29.40037 35919 ft 449 kts 247°
2026-05-05 19:02 -24.67743 29.34161 35919 ft 449 kts 247°
2026-05-05 19:03 -24.70986 29.28285 35924 ft 449 kts 247°
2026-05-05 19:03 -24.74208 29.22441 35923 ft 449 kts 247°
2026-05-05 19:04 -24.77450 29.16553 35919 ft 450 kts 247°
2026-05-05 19:04 -24.80696 29.10652 35923 ft 449 kts 248°
2026-05-05 19:05 -24.82318 29.07698 35625 ft 454 kts 247°
2026-05-05 19:05 -24.83941 29.04732 34965 ft 458 kts 247°
2026-05-05 19:05 -24.85590 29.01729 34205 ft 458 kts 247°
2026-05-05 19:05 -24.87246 28.98714 33321 ft 459 kts 246°
2026-05-05 19:06 -24.88904 28.95692 32438 ft 460 kts 246°
2026-05-05 19:06 -24.90544 28.92698 31559 ft 462 kts 246°
2026-05-05 19:06 -24.92239 28.89676 30641 ft 465 kts 241°
2026-05-05 19:06 -24.94484 28.87041 29971 ft 480 kts 226°
2026-05-05 19:07 -24.97292 28.84991 29240 ft 489 kts 214°
2026-05-05 19:07 -25.00496 28.83627 28588 ft 497 kts 199°
2026-05-05 19:07 -25.03891 28.82901 28013 ft 495 kts 196°
2026-05-05 19:07 -25.07279 28.82271 27412 ft 492 kts 195°
2026-05-05 19:08 -25.10643 28.81649 26822 ft 488 kts 196°
2026-05-05 19:08 -25.13989 28.81004 26256 ft 484 kts 196°
2026-05-05 19:08 -25.17252 28.80345 25700 ft 481 kts 197°
2026-05-05 19:08 -25.20546 28.79657 25108 ft 479 kts 197°
2026-05-05 19:09 -25.23826 28.78961 24526 ft 477 kts 197°
2026-05-05 19:09 -25.27036 28.78275 24011 ft 474 kts 197°
2026-05-05 19:09 -25.30241 28.77595 23830 ft 461 kts 197°
2026-05-05 19:09 -25.33360 28.76934 23627 ft 451 kts 197°
2026-05-05 19:10 -25.36412 28.76287 23415 ft 442 kts 197°
2026-05-05 19:10 -25.39403 28.75652 23198 ft 427 kts 197°
2026-05-05 19:10 -25.42236 28.75056 22991 ft 399 kts 197°
2026-05-05 19:10 -25.44864 28.74503 22884 ft 383 kts 198°
2026-05-05 19:11 -25.47497 28.74131 22585 ft 385 kts 186°
2026-05-05 19:11 -25.50179 28.74257 22244 ft 386 kts 181°
2026-05-05 19:11 -25.52856 28.74521 21869 ft 386 kts 180°
2026-05-05 19:11 -25.55526 28.74803 21503 ft 385 kts 180°
2026-05-05 19:12 -25.58198 28.75066 21122 ft 384 kts 181°
2026-05-05 19:12 -25.60858 28.75305 20763 ft 383 kts 181°
2026-05-05 19:12 -25.63518 28.75527 20380 ft 383 kts 181°
2026-05-05 19:12 -25.66145 28.75735 20008 ft 383 kts 181°
2026-05-05 19:13 -25.68806 28.75941 19628 ft 383 kts 181°
2026-05-05 19:13 -25.71476 28.76146 19234 ft 384 kts 181°
2026-05-05 19:13 -25.74146 28.76351 18845 ft 386 kts 181°
2026-05-05 19:13 -25.76827 28.76557 18454 ft 387 kts 181°
2026-05-05 19:14 -25.79523 28.76765 18018 ft 388 kts 181°
2026-05-05 19:14 -25.82196 28.76974 17569 ft 377 kts 181°
2026-05-05 19:14 -25.84782 28.77178 17207 ft 372 kts 181°
2026-05-05 19:14 -25.87308 28.77159 16812 ft 360 kts 197°
2026-05-05 19:15 -25.89661 28.76424 16574 ft 342 kts 212°
2026-05-05 19:15 -25.91667 28.75178 16463 ft 321 kts 223°
2026-05-05 19:15 -25.93484 28.73833 16326 ft 310 kts 223°
2026-05-05 19:15 -25.95265 28.72526 16196 ft 303 kts 223°
2026-05-05 19:16 -25.96999 28.71270 16043 ft 293 kts 223°
2026-05-05 19:16 -25.98438 28.69859 15700 ft 266 kts 246°
2026-05-05 19:16 -25.99257 28.68094 15435 ft 249 kts 257°
2026-05-05 19:16 -25.99906 28.66332 15129 ft 249 kts 258°
2026-05-05 19:17 -26.00545 28.64570 14830 ft 248 kts 258°
2026-05-05 19:17 -26.01193 28.62783 14524 ft 249 kts 258°
2026-05-05 19:17 -26.01840 28.61002 14223 ft 249 kts 258°
2026-05-05 19:17 -26.02490 28.59223 13908 ft 247 kts 257°
2026-05-05 19:18 -26.03133 28.57471 13563 ft 242 kts 257°
2026-05-05 19:18 -26.03764 28.55756 13237 ft 236 kts 257°
2026-05-05 19:18 -26.04379 28.54081 12950 ft 233 kts 257°
2026-05-05 19:18 -26.04981 28.52438 12652 ft 231 kts 257°
2026-05-05 19:19 -26.05586 28.50790 12383 ft 229 kts 257°
2026-05-05 19:19 -26.06189 28.49144 12109 ft 231 kts 257°
2026-05-05 19:19 -26.06523 28.47461 11794 ft 218 kts 281°
2026-05-05 19:19 -26.06176 28.45848 11562 ft 215 kts 297°
2026-05-05 19:20 -26.05397 28.44435 11272 ft 215 kts 307°
2026-05-05 19:20 -26.04486 28.43106 11012 ft 217 kts 308°
2026-05-05 19:20 -26.03561 28.41775 10726 ft 216 kts 308°
2026-05-05 19:20 -26.02669 28.40480 10442 ft 211 kts 307°
2026-05-05 19:21 -26.01782 28.39184 10163 ft 206 kts 307°
2026-05-05 19:21 -26.00931 28.37935 9939 ft 204 kts 307°
2026-05-05 19:21 -26.00094 28.36702 9902 ft 195 kts 307°
2026-05-05 19:21 -25.99290 28.35518 9844 ft 188 kts 307°
2026-05-05 19:22 -25.98533 28.34366 9719 ft 181 kts 299°
2026-05-05 19:22 -25.98266 28.32994 9355 ft 191 kts 266°
2026-05-05 19:22 -25.98894 28.31637 8892 ft 210 kts 232°
2026-05-05 19:22 -26.00065 28.30634 8453 ft 215 kts 221°
2026-05-05 19:23 -26.01359 28.29800 7990 ft 219 kts 211°
2026-05-05 19:23 -26.02730 28.29159 7718 ft 209 kts 208°
2026-05-05 19:23 -26.04072 28.28657 7462 ft 197 kts 203°
2026-05-05 19:23 -26.05346 28.28262 7217 ft 183 kts 202°
2026-05-05 19:24 -26.06536 28.27893 7040 ft 176 kts 203°
2026-05-05 19:24 -26.07683 28.27539 6807 ft 165 kts 202°
2026-05-05 19:24 -26.08802 28.27189 6619 ft 168 kts 202°
2026-05-05 19:24 -26.09905 28.26848 6352 ft 159 kts 201°
2026-05-05 19:25 -26.10974 28.26516 6094 ft 161 kts 201°
2026-05-05 19:25 -26.12046 28.26195 5861 ft 160 kts 199°
2026-05-05 19:25 -26.13124 28.25855 5612 ft 161 kts 200°
2026-05-05 19:25 -26.14153 28.25545 5517 ft 143 kts 199°
2026-05-05 19:26 -26.14889 28.25306 5513 ft 48 kts 195°
2026-05-05 19:26 -26.15209 28.25205 5516 ft 44 kts 195°
2026-05-05 19:26 -26.15470 28.25125 5519 ft 28 kts 195°
2026-05-05 19:26 -26.15581 28.25076 5521 ft 10 kts 221°
2026-05-05 19:27 -26.15592 28.25001 5520 ft 10 kts 279°
2026-05-05 19:27 -26.15572 28.24924 5518 ft 10 kts 297°
2026-05-05 19:27 -26.15507 28.24906 5518 ft 10 kts 12°
2026-05-05 19:27 -26.15436 28.24928 5519 ft 11 kts 15°
2026-05-05 19:28 -26.15363 28.24950 5518 ft 11 kts 15°
2026-05-05 19:28 -26.15290 28.24972 5518 ft 11 kts 16°
2026-05-05 19:28 -26.15219 28.24995 5519 ft 11 kts 15°
2026-05-05 19:28 -26.15146 28.25018 5520 ft 11 kts 15°
2026-05-05 19:29 -26.15073 28.25040 5519 ft 12 kts 15°
2026-05-05 19:29 -26.14950 28.25078 5516 ft 26 kts 15°
2026-05-05 19:29 -26.14789 28.25128 5515 ft 23 kts 15°
2026-05-05 19:29 -26.14636 28.25175 5515 ft 23 kts 15°
2026-05-05 19:30 -26.14483 28.25222 5515 ft 23 kts 16°
2026-05-05 19:30 -26.14330 28.25270 5514 ft 23 kts 15°
2026-05-05 19:30 -26.14177 28.25317 5514 ft 23 kts 15°
2026-05-05 19:30 -26.14024 28.25364 5516 ft 23 kts 15°
2026-05-05 19:31 -26.13870 28.25412 5513 ft 23 kts 15°
2026-05-05 19:31 -26.13769 28.25443 5512 ft 23 kts 15°
2026-05-05 19:31 -26.13566 28.25506 5506 ft 23 kts 15°
2026-05-05 19:31 -26.13410 28.25514 5516 ft 23 kts 348°
2026-05-05 19:32 -26.13254 28.25478 5527 ft 23 kts 348°
2026-05-05 19:32 -26.13151 28.25454 5535 ft 23 kts 347°
2026-05-05 19:32 -26.13009 28.25378 5536 ft 23 kts 324°
2026-05-05 19:32 -26.12879 28.25198 5538 ft 23 kts 294°
2026-05-05 19:33 -26.12831 28.25029 5540 ft 23 kts 286°
2026-05-05 19:33 -26.12802 28.24914 5537 ft 23 kts 285°
2026-05-05 19:33 -26.12759 28.24744 5537 ft 23 kts 285°
2026-05-05 19:33 -26.12717 28.24577 5538 ft 23 kts 285°
2026-05-05 19:34 -26.12673 28.24407 5546 ft 23 kts 285°
2026-05-05 19:34 -26.12642 28.24284 5545 ft 15 kts 285°
2026-05-05 19:34 -26.12614 28.24171 5545 ft 15 kts 285°
2026-05-05 19:35 -26.12561 28.23959 5545 ft 10 kts 285°
2026-05-05 19:35 -26.12538 28.23897 5547 ft 7 kts 319°
2026-05-05 19:35 -26.12488 28.23900 5547 ft 8 kts 13°
2026-05-05 19:35 -26.12431 28.23917 5547 ft 9 kts 15°
2026-05-05 19:36 -26.12373 28.23935 5546 ft 9 kts 15°
2026-05-05 19:36 -26.12305 28.23957 5545 ft 13 kts 15°
2026-05-05 19:36 -26.12180 28.23995 5537 ft 21 kts 15°
2026-05-05 19:36 -26.12041 28.24038 5536 ft 21 kts 15°
2026-05-05 19:37 -26.11902 28.24081 5532 ft 21 kts 15°
2026-05-05 19:37 -26.11763 28.24125 5529 ft 21 kts 16°
2026-05-05 19:37 -26.11625 28.24167 5529 ft 21 kts 15°
2026-05-05 19:37 -26.11519 28.24200 5528 ft 11 kts 15°
2026-05-05 19:38 -26.11446 28.24222 5527 ft 11 kts 16°
2026-05-05 19:38 -26.11373 28.24245 5527 ft 8 kts 13°
2026-05-05 19:38 -26.11324 28.24226 5526 ft 8 kts 307°
2026-05-05 19:38 -26.11315 28.24186 5525 ft 4 kts 280°
2026-05-05 19:39 -26.11313 28.24179 5524 ft 0 kts 284°